This is the latest recevied weather packets stored in our database for station/object EA7HQL-10. If no packets are shown the sender has not sent any weather packets the latest 10 day(s).
| Time | Temp. | Humidity | Pressure | Rain* | Wind** | Luminosity | Snow |
|---|---|---|---|---|---|---|---|
| 1777737781 | 20° C | 78% | 1014.9 hPa | 0 mm | - | - | - |
| 1777737501 | 20° C | 78% | 1014.9 hPa | 0 mm | - | - | - |
| 1777737241 | 20.56° C | 78% | 1015 hPa | 0 mm | - | - | - |
| 1777736961 | 20.56° C | 78% | 1014.7 hPa | 0 mm | - | - | - |
| 1777736711 | 20.56° C | 77% | 1015 hPa | 0 mm | - | - | - |
| 1777736461 | 20.56° C | 78% | 1015 hPa | 0 mm | - | - | - |
| 1777736171 | 20° C | 79% | 1015.1 hPa | 0 mm | - | - | - |
| 1777735906 | 20.56° C | 78% | 1015.5 hPa | 0 mm | - | - | - |
| 1777735651 | 21.67° C | 76% | 1015.4 hPa | 0 mm | - | - | - |
| 1777735351 | 21.11° C | 75% | 1015.5 hPa | 0 mm | - | - | - |
| 1777735103 | 20.56° C | 77% | 1015.5 hPa | 0 mm | - | - | - |
| 1777734826 | 20.56° C | 77% | 1015.4 hPa | 0 mm | - | - | - |
| 1777734561 | 20.56° C | 77% | 1015.5 hPa | 0 mm | - | - | - |
| 1777734266 | 20.56° C | 78% | 1015.4 hPa | 0 mm | - | - | - |
| 1777734019 | 20.56° C | 78% | 1015.6 hPa | 0 mm | - | - | - |
| 1777733756 | 20.56° C | 78% | 1015.7 hPa | 0 mm | - | - | - |
| 1777733513 | 20.56° C | 76% | 1015.8 hPa | 0 mm | - | - | - |
| 1777733255 | 20.56° C | 76% | 1015.9 hPa | 0 mm | - | - | - |
| 1777732956 | 20.56° C | 77% | 1015.8 hPa | 0 mm | - | - | - |
| 1777732691 | 21.11° C | 76% | 1015.8 hPa | 0 mm | - | - | - |
| 1777732443 | 20.56° C | 77% | 1015.9 hPa | 0 mm | - | - | - |
| 1777732201 | 20.56° C | 78% | 1015.9 hPa | 0 mm | - | - | - |
| 1777731919 | 20° C | 79% | 1016 hPa | 0 mm | - | - | - |
| 1777731671 | 20° C | 80% | 1015.9 hPa | 0 mm | - | - | - |
| 1777731381 | 20° C | 81% | 1016.1 hPa | 0 mm | - | - | - |
* Rain latest hour (hover to see other rain measurements)
** Current wind speed in m/s (hover to see current wind gust speed)